This demonstration page uses our WeatherBlox Daily Observations layout. Learn more.

Left ArrowRight Arrow

41.86663, -103.66717

Hourly Observations for July 16, 2017

Temp ( °F °C ) Dew Point ( °F °C ) Humidity (%) Winds ( mph kmh ) Pressure ( in mb ) Visibility ( mi km ) Precip ( " mm )
12:53 am 00:53 Clear 68 20 55 12.8 63 63 Calm 30.04 1017 10 16 0.00 0.00
1:53 am 01:53 Clear 64 17.8 57 13.9 78 78 ENE 3 6 30.04 1017 10 16 0.00 0.00
2:53 am 02:53 Clear 64 17.8 56 13.3 75 75 ENE 5 7 30.02 1017 10 16 0.00 0.00
3:53 am 03:53 Clear 61 16.1 55 12.8 81 81 NE 5 7 30.01 1016 10 16 0.00 0.00
4:53 am 04:53 Clear 59 15 54 12.2 83 83 undefined N/A 30.02 1017 10 16 0.00 0.00
5:53 am 05:53 Sunny 59 15 54 12.2 83 83 NNE 3 6 30.02 1017 10 16 0.00 0.00
6:53 am 06:53 Sunny 65 18.3 55 12.8 70 70 ESE 6 9 30.01 1016 10 16 0.00 0.00
7:53 am 07:53 Sunny 69 20.6 56 13.3 63 63 ESE 7 11 30.01 1016 10 16 0.00 0.00
8:53 am 08:53 Sunny 75 23.9 57 13.9 54 54 E 9 15 30.01 1016 10 16 0.00 0.00
9:53 am 09:53 Sunny 80 26.7 56 13.3 44 44 E 10 17 29.99 1016 10 16 0.00 0.00
10:53 am 10:53 Sunny 85 29.4 56 13.3 37 37 ESE 15 24 29.96 1015 10 16 0.00 0.00
11:53 am 11:53 Sunny 88 31.1 50 10 27 27 S 15 24 29.94 1014 10 16 0.00 0.00
12:53 pm 12:53 Sunny 90 32.2 50 10 25 25 S 14 22 29.93 1013 10 16 0.00 0.00
1:53 pm 13:53 Sunny 91 32.8 51 10.6 26 26 SSE 14 22 29.90 1013 10 16 0.00 0.00
2:53 pm 14:53 Sunny 93 33.9 53 11.7 26 26 SSE 16 26 29.88 1012 10 16 0.00 0.00
3:53 pm 15:53 Sunny 93 33.9 55 12.8 28 28 SE 9 15 29.87 1011 10 16 0.00 0.00
4:53 pm 16:53 Sunny 92 33.3 55 12.8 29 29 SE 15 24 29.85 1011 10 16 0.00 0.00
5:53 pm 17:53 Sunny 91 32.8 55 12.8 30 30 SE 16 26 29.83 1010 10 16 0.00 0.00
6:53 pm 18:53 Sunny 88 31.1 55 12.8 33 33 SSE 17 28 29.83 1010 10 16 0.00 0.00
7:53 pm 19:53 Sunny 83 28.3 58 14.4 43 43 SE 16 26 29.85 1011 10 16 0.00 0.00
8:53 pm 20:53 Clear 79 26.1 58 14.4 49 49 SE 9 15 29.85 1011 10 16 0.00 0.00
9:53 pm 21:53 Clear 73 22.8 58 14.4 59 59 ESE 7 11 29.87 1011 10 16 0.00 0.00
10:53 pm 22:53 Clear 71 21.7 59 15 66 66 ESE 7 11 29.85 1011 10 16 0.00 0.00
11:53 pm 23:53 Clear 71 21.7 59 15 66 66 E 8 13 29.86 1011 10 16 0.00 0.00

Powered by AerisWeather